Showing default

AETHER-9, 67380

Orbit data source: Space-Track

AETHER-9, 67380 is a payload satellite owned by Kepler Comms (CA) in SSO that was launched on Sun, 11 Jan 2026 UTC via an FALCON 9 launch vehicle from the Air Force Western Test Range (AFWTR). Payload-class satellites include a variety of spacecraft equipped with specific instruments for various scientific and technological missions. These include communications satellites like Starlink; space stations such as the ISS; scientific satellites like the Hubble; Earth observation satellites from companies like Planet Labs, Umbra, and HawkEye 360; GPS; miniature CubeSats for education and research; and military/defense satellites.

Loading next visibility...
Identifier
67380, 2026-004T
Orbit
SSO
Country
Flag of CACA
Related business
Manufacturer
Kepler Comms
Mission
Operational Commercial Communications
Bus & Motor
KEPLER GEN2B, Unknown motor
Mass
300 kg wet, 300 kg dry
Launch date (UTC)
2026-01-11 (8 months ago)
Launch vehicle
FALCON 9
Launch site
Air Force Western Test Range (AFWTR)
Object type
Payload
Rocket body
Debris
Shape & HBR
Box + 2 Pan, 7.6 m
Radar Cross Section
4.448 m², Large (>1 m²)

Expand to show TLE details & history
Last TLE update: 13 hours ago

TLE from 13 hours ago
0 AETHER-9
1 67380U 26004T   26264.27771679  .00000402  00000-0  52188-4 0  9996
2 67380  97.8073 261.0221 0001546 151.2778 208.8523 14.85916398 37553
Epoch: 2026-09-21T06:39Z
TLE epoch observation values (Epoch: 2026-09-21T06:39:54.730Z)
Latitude
-0.00001°
Longitude
160.88421°
Altitude
614.69 km
Speed
7.551 km/s
True Right ascension
17h 24m 05s
True Declination
0° 00' 00"
Sunlit
Object was in daylight at epoch
Visualization orbit readout
Latitude
Unknown
Longitude
Unknown
Altitude
Unknown
Speed
Unknown
Apparent Right ascension
Unknown
Apparent Declination
Unknown
Sunlit
N/A
Visualization observer readout
Local Sidereal Time
12:36:18
Azimuth
Unknown
Elevation
Unknown
Doppler factor
Unknown
Orbital elements
Apogee altitude
608.82 km
Perigee altitude
606.66 km
Semi-major axis
6,985.877 km
Eccentricity
0.00015
Inclination
97.8073°
RAAN
261.0221°
Arg. of periapsis
151.2778°
True anomaly
208.84375°
Mean anomaly
208.8523°
Eccentric anomaly
208.84803°
Mean motion
3.71716 °/min
Orbital period
96.85 mins
BSTAR
0.000052188
Loading maneuver chart data...
Computing Atmospheric mass density...
Loading historical data...
Loading historical data...
Loading historical data...
Loading historical data...
Loading historical data...
Loading historical data...
Loading historical data...

Documentation

Showing up to 5 results
|